Regional Weather Roundup
Issued by NWS Wakefield, VA

Home | Current Version | Previous Version | Graphics & Text | Print | Product List | Glossary On
Versions: 1 2 3 4 5 6 7 8 9 10 11 12 13 14 15 16 17 18 19 20 21 22 23 24 25 26 27 28 29 30 31 32 33 34 35 36 37 38 39 40 41 42 43 44 45 46 47 48 49 50
000
ASUS41 KAKQ 302310
RWRAKQ

REGIONAL WEATHER ROUNDUP
NATIONAL WEATHER SERVICE WAKEFIELD VA
700 PM EDT SAT AUG 30 2014

Note: "fair" indicates few or no clouds below 12,000 feet with no
significant weather and/or obstructions to visibility. * = Denotes
station may not report precipitation (e.g., rain,snow,etc.),
thunder or fog.

VAZ042-051-052>054-056-310000-
NORTHERN VIRGINIA

CITY           SKY/WX    TMP DP  RH WIND       PRES   REMARKS
WASH NATIONAL  CLOUDY    83  70  64 SE10      30.11F
DULLES         MOCLDY    78  70  76 S5        30.11F
FORT BELVOIR   PTCLDY    80  72  77 SE3       30.12S
QUANTICO       CLEAR     81  72  74 SE9       30.11F
FREDERICKSBRG* CLEAR     85  72  64 SE3       30.09F
STAFFORD*      PTCLDY    82  73  76 CALM      30.15S
WARRENTON      PTCLDY    81  76  85 S3        30.11S
CULPEPER*      PTCLDY   N/A N/A N/A S3        30.11F
MANASSAS*      MOCLDY    79  73  83 SE5       30.11S
LEESBURG*      CLOUDY    81  73  78 S5        30.12S
WINCHESTER     MOCLDY    77  68  73 SE7       30.11S
$$

VAZ048-049-060>072-079>083-310000-
CENTRAL AND SOUTH CENTRAL VIRGINIA...AND NORTH CENTRAL NORTH CAROLINA

CITY           SKY/WX    TMP DP  RH WIND       PRES   REMARKS
RICHMOND       PTCLDY    85  71  63 SE8       30.11F
CHESTERFIELD*  CLEAR     84  66  54 S6        30.13F
PETERSBURG*    CLEAR     83  71  67 S3        30.12S
HANOVER        MOCLDY    85  72  65 VRB5      30.12F
TAPPAHANNOCK*  CLEAR     82  69  63 SE5       30.13S
CHARLOTTSVILLE PTCLDY    82  72  71 S6        30.11S
ORANGE*        CLEAR     81  72  74 SE3       30.13S
LOUISA*        CLEAR     82  73  74 CALM      30.11S
FARMVILLE*     CLEAR     84  72  65 S6        30.10S
SOUTH HILL*    CLEAR     84  75  74 CALM      30.17F
ROANOKE RAPIDS CLEAR     82  72  69 CALM      30.12S
RALEIGH        PTCLDY    85  70  60 SE7       30.12F
$$

VAZ088>098-310000-
SOUTHEAST VIRGINIA

CITY           SKY/WX    TMP DP  RH WIND       PRES   REMARKS
NORFOLK        CLEAR     82  71  69 SE8       30.14F
VIRGINIA BEACH PTCLDY    79  73  82 SE10      30.14F
NORFOLK NAVAL  PTCLDY    83  73  72 SE10      30.14F
WEST POINT*    PTCLDY    83  72  69 E8        30.14F
NEWPORT NEWS   MOCLDY    85  73  67 E9        30.13F
LANGLEY AFB    CLEAR     82  74  77 SE10      30.12F
FORT EUSTIS    CLEAR     84  70  62 SE6       30.11F
WILLIAMSBURG*  CLEAR     86  75  70 SE6       30.13F HX  95
FRANKLIN*      CLEAR     82  73  74 SE5       30.12F
WAKEFIELD      PTCLDY    85  73  67 CALM      30.12F
$$

VAZ020-022-025-037-045-310000-
WESTERN AND SOUTHWEST VIRGINIA

CITY           SKY/WX    TMP DP  RH WIND       PRES   REMARKS
STAUNTON*      CLEAR     81  68  65 S6        30.14F
HOT SPRINGS VA PTCLDY    68  63  83 S9        30.29S
LYNCHBURG      CLEAR     81  72  74 S9        30.14F
DANVILLE       CLEAR     85  69  58 SE3       30.12S
MARTINSVILLE   PTCLDY    82  75  79 CALM      30.15S
ROANOKE        PTCLDY    83  69  62 S12       30.14S
BLACKSBURG     CLEAR     81  68  65 S6        30.20S
DUBLIN*        CLEAR     82  64  54 S5        30.19S
MARION*        MOSUNNY  N/A N/A N/A E5        30.22S
HILLSVILLE*    CLEAR     76  64  66 S6        30.23R
RICHLANDS*     MOCLDY    82  66  58 SE5       30.19S
WISE*          PTSUNNY   79  63  57 CALM      30.19S
ABINGDON*      MOSUNNY   83  66  56 S3        30.15S
$$

MDZ021>025-VAZ099-100-310000-
SOUTHERN MARYLAND AND THE DELMARVA PENINSULA

CITY           SKY/WX    TMP DP  RH WIND       PRES   REMARKS
PATUXENT RIVER CLEAR     78  70  76 S10       30.13F
BAY BRIDGE APT   N/A     79  66  65 S8        30.13S
LEONARDTOWN    CLEAR     79  68  69 SE6       30.15S
DOVER          MOCLDY    76  69  80 SE7       30.13F
GEORGETOWN     PTCLDY    78  64  61 S18       30.16F
EASTON         PTCLDY    84  68  58 S12       30.17F
CAMBRIDGE      CLOUDY    81  66  61 S6        30.14S
SALISBURY      CLEAR     79  65  62 SE6       30.16S
OCEAN CITY     PTCLDY    76  67  73 S6        30.17F
WALLOPS ISLAND MOCLDY    78  67  68 S8        30.17F
ACCOMACK*      NOT AVBL
$$

NCZ012>017-030>032-310000-
EASTERN NORTH CAROLINA

CITY           SKY/WX    TMP DP  RH WIND       PRES   REMARKS
ELIZABETH CITY PTCLDY    81  73  76 S6        30.14F
AHOSKIE*       CLEAR     82  73  73 SE3       30.13F
EDENTON*       PTCLDY    80  74  80 SE6       30.14F
CURRITUCK*     PTCLDY    82  73  74 CALM      30.15F
KILL DEVIL HLS PTCLDY    81  74  78 SE3       30.14F
MANTEO         PTCLDY    80  74  82 S5        30.16S
CAPE HATTERAS  NOT AVBL
GOLDSBORO      CLEAR     84  75  74 SE6       30.11S
WASHINGTON     CLEAR     83  71  66 SE5       30.14S
GREENVILLE     CLEAR     84  73  70 SW5       30.13F
NEW BERN       CLEAR     85  72  65 S5        30.14F
WILMINGTON     CLEAR     82  71  69 SE8       30.13F
$$

VAZ048-310000-
ELSEWHERE

CITY           SKY/WX    TMP DP  RH WIND       PRES   REMARKS
HARRISBURG PA  CLOUDY    78  67  68 SE9       30.10F
BALTIMORE      PTCLDY    78  68  71 SE7       30.12F
ANNAPOLIS      MOCLDY    79  68  69 S12       30.12F
ANDREWS AFB    MOCLDY    77  71  79 SE8       30.12F
WILMINGTON DE  CLOUDY    78  65  63 SE10      30.15F
PHILADELPHIA   MOCLDY    78  61  55 SE6       30.15F
WILDWOOD NJ*   CLOUDY    75  63  64 S10       30.18F
ATLANTIC CITY  MOCLDY    73  61  65 S7        30.17F
HENDERSON NC   CLEAR     83  69  62 SE3       30.13S
GREENSBORO     PTCLDY    86  68  54 SE9       30.12S
ROCKY MOUNT    PTCLDY    84  72  67 S6        30.12F
FAYETTEVILLE   CLEAR     85  71  63 SE13      30.11S
CHARLOTTE      MOCLDY    88  63  43 CALM      30.11S
$$

VAZ100-310000-
MARINE

STATION/POSITION TIME  TEMP    WIND        PRES    WAVE   SWELL
                       AIR SEA DIR/SP/G            HT/PER HT/PER
                 (UTC) (F)     (DEG/KT/KT) (MB)    (FT/S) (FT/S)
44066 TX TWR #4  2300   74 73  160/  8/ 10 1022.4F   3/ 8   2/ 8
CAPE MAY NJ      2300   74 79  140/  8/  9 1021.1S
LEWES DE         2300   76 76  150/  7/ 10 1021.1F
15NM E FENWICK I 2300   75 74              1021.7F   2/ 7
OCEAN-CITY-INLET 2300   76 77  190/  6/  8 1021.4F
WACHAPREAGUE VA  2300   78 83  170/  7/ 11 1021.3F
THOMAS POINT MD  2300   78 78  170/ 15/ 16 1020.9F
GOOSES REEF MD   2300   79     180/ 16/ 19 1020.6F
COVE POINT MD    2300   78     180/ 18/ 19 1020.3F
SOLOMONS ISLAND  2300      79                N/A
BISHOPS HEAD MD  2300   79 78  150/ 12/ 15 1020.2F
PINEY POINT MD   2300          160/ 14/ 16   N/A
POTOMAC MD       2300   79     170/ 14/ 17 1019.8F
CAMBRIDGE MD     2300   80 78  170/  7/ 11 1020.2F
LEWISETTA VA     2300   79 80  160/  8/  9 1019.9F
RAPPAHANNOCK LGT 2300          130/ 13/ 15 1021.3F
STINGRAY PT      2300   79     160/ 14/ 16   N/A
YORK RVR RNG VA  2300   78     140/ 18/ 20 1019.8F
YORKTOWN VA      2300   80 80  140/ 11/ 15 1019.9F
JAMESTOWN VA     2300   82     150/  8/ 10   N/A
DOMINION TERM VA 2300   82     150/ 11/ 12 1020.3F
KIPTOPEKE VA     2300      83  140/ 12/ 16   N/A
CHES BAY BRIDGE  2300   79 79  110/  8/ 12 1020.3F
CAPE HENRY VA    2300   78     140/ 11/ 15 1019.8F
CHESAPEAKE LGHT  2200   76     130/ 16/ 17 1021.9F
WILLOUBY STN VA  2300   82     130/ 12/ 13 1019.2F
S CRANEY ISL VA  2300          160/  6/ 11 1020.1F
CAPE HENRY BUOY  2200      77                N/A     3/ 7
1ST LANDING BUOY 2300   78     140/ 14/ 16 1020.6F
CAPE CHARLES BUO 2300      78                N/A     3/ 7   2/ 7
OFFSHORE WE BUOY 2300      76                N/A     3/ 7   2/ 7
64NM E OF VA BCH 2300   78 78  110/  8/ 10 1021.3F   2/ 8   2/ 8
DUCK PIER NC     2300   80 79  140/ 12/ 14 1020.4F
44056 DUCK FRF   2300                        N/A     3/ 8
OREGON INLET NC  2300   81 78  130/  6/  9 1021.2F
HATTERAS NC      2300   82 82  160/  6/  8 1021.9F
DIAMOND SHLS NC  2300   81     160/  8/ 10 1021.3F   3/ 8   3/ 8
CAPE LOOKOUT NC  2200   81     160/  5/  6 1021.2S
$$


USA.gov is the U.S. government's official web portal to all federal, state and local government web resources and services.